SCP
0 0 0 0 0 0 0 0 0 0 0 0 0 0 0 0 0 0 0 0 0 0 0 0 0 0 0 0 0 0 0 0
0 0 0 0 0 0 0 0 0 0 0 0 0 0 0 0 0 0 0 0 0 0 0 0 0 0 0 0 0 0 0 0
0 0 0 0 0 0 0 0 0 0 0 0 0 0 0 0 0 0 0 0 0 0 0 0 0 0 0 0 0 0 0 0
0 0 0 0 0 0 0 0 0 0 0 0 0 0 0 0 0 0 0 0 0 0 0 0 0 0 0 0 0 0 0 0
0 0 0 0 0 0 0 0 0 0 0 0 0 0 0 0 0 0 0 0 0 0 0 0 0 0 0 0 0 0 0 0
0 0 0 0 0 0 0 0 0 0 0 0 0 0 0 0 0 0 0 0 0 0 0 0 0 0 0 0 0 0 0 0
0 0 0 0 0 0 0 0 0 0 0 0 0 0 0 0 0 0 0 0 0 0 0 0 0 0 0 0 0 0 0 0
0 0 0 0 0 0 0 0 0 0 0 0 0 0 0 0 0 0 0 0 0 0 0 0 0 0 0 0 0 0 0 0
0 0 0 0 0 0 0 0 0 0 0 0 0 0 0 0 0 0 0 0 0 0 0 0 0 0 0 0 0 0 0 0
0 0 0 0 0 0 0 0 0 0 0 0 0 0 0 0 0 0 0 0 0 0 0 0 0 0 0 0 0 0 0 0
0 0 0 0 0 0 0 0 0 0 0 0 0 0 0 0 0 0 0 0 0 0 0 0 0 0 0 0 0 0 0 0
0 0 0 0 0 0 0 0 0 0 0 0 0 0 0 0 0 0 0 0 0 0 0 0 0 0 0 0 0 0 0 0
0 0 0 0 0 0 0 0 0 0 0 0 0 0 0 0 0 0 0 0 0 0 0 0 0 0 0 0 0 0 0 0
0 0 0 0 0 0 0 0 0 0 0 0 0 0 0 0 0 0 0 0 0 0 0 0 0 0 0 0 0 0 0 0
0 0 0 0 0 0 0 0 0 0 0 0 0 0 0 0 0 0 0 0 0 0 0 0 0 0 0 0 0 0 0 0
0 0 0 0 0 0 0 0 0 0 0 0 0 0 0 0 0 0 0 0 0 0 0 0 0 0 0 0 0 0 0 0
0 0 0 0 0 0 0 0 0 0 0 0 0 0 0 0 0 0 0 0 0 0 0 0 0 0 0 0 0 0 0 0
0 0 0 0 0 0 0 0 0 0 0 0 0 0 0 0 0 0 0 0 0 0 0 0 0 0 0 0 0 0 0 0
0 0 0 0 0 0 0 0 0 0 0 0 0 0 0 0 0 0 0 0 0 0 0 0 0 0 0 0 0 0 0 0
0 0 0 0 0 0 0 0 0 0 0 0 0 0 0 0 0 0 0 0 0 0 0 0 0 0 0 0 0 0 0 0
Wind_Speed_500mb
28 27 25 24 22 20 18 15 11 7 1 6 12 19 27 33 39 43 44 45 46 45 50 53 48 40 50 54 61 65 65 69
27 24 20 18 15 14 13 12 9 8 7 7 10 13 17 20 25 32 37 43 45 47 50 46 47 48 53 55 57 60 62 66
25 22 17 12 9 5 4 3 5 6 6 6 5 6 9 13 17 19 22 26 31 34 37 42 48 54 58 60 62 64 65 64
22 19 16 12 10 7 4 3 3 5 5 6 7 7 8 8 9 11 14 19 23 26 28 30 35 39 41 44 46 50 53 56
26 23 20 18 15 11 9 8 6 6 6 6 6 7 9 9 11 13 14 16 20 22 24 27 30 32 34 37 41 43 46 49
31 30 28 26 24 21 17 13 11 9 8 6 7 7 7 8 11 14 17 21 24 26 29 33 34 35 39 43 45 48 50 55
38 35 32 28 23 19 16 13 11 10 9 10 9 10 10 11 12 16 19 23 27 31 34 37 41 47 52 56 60 61 64 67
41 35 30 26 23 19 15 12 8 6 6 6 8 10 12 15 17 19 23 25 28 30 33 35 39 43 47 51 57 62 66 70
44 35 29 25 21 16 13 9 5 4 6 9 12 15 19 22 25 28 32 35 39 41 44 44 45 47 48 51 54 59 61 64
41 33 29 26 21 16 10 4 3 9 14 19 23 26 30 33 36 38 41 43 45 47 48 49 46 49 48 49 51 52 54 56
42 35 29 22 15 8 3 9 17 24 28 31 34 37 39 42 43 45 47 47 49 48 50 52 51 52 53 53 56 58 57 56
41 33 25 17 8 6 14 22 27 31 34 37 41 44 48 50 52 55 56 56 55 57 55 55 56 52 52 52 53 54 57 58
38 29 19 10 9 16 24 28 31 34 36 37 39 42 46 50 52 54 58 62 62 62 62 58 56 56 55 52 52 52 56 60
31 21 12 12 17 23 26 27 29 32 35 39 42 47 51 55 56 57 57 61 64 65 66 64 58 56 58 56 52 53 53 57
25 17 15 18 22 24 26 27 30 33 37 40 42 43 45 49 54 57 56 57 60 63 64 64 62 59 56 58 58 50 49 50
21 17 18 21 22 24 26 28 30 32 35 38 41 46 48 48 50 51 52 56 59 60 62 63 63 58 53 55 58 56 51 49
19 18 20 22 23 24 26 28 30 32 37 41 44 46 50 53 53 48 54 55 57 58 55 57 55 54 56 58 60 59 42 42
21 19 19 21 22 23 25 27 30 33 37 41 46 50 53 55 58 64 54 53 55 54 47 47 54 56 60 59 55 49 38 41
21 18 17 18 19 20 22 26 31 37 43 47 50 52 55 57 58 59 61 64 61 51 46 46 45 45 48 49 49 47 38 39
21 19 18 16 17 19 24 28 33 39 45 50 53 55 56 57 57 55 55 55 57 55 50 40 42 40 41 42 43 42 39 39
Wind_Direction_500mb
113 102 93 86 76 71 65 58 50 42 347 238 247 250 248 245 243 245 249 253 256 257 262 266 265 271 273 272 280 278 281 283
120 114 104 98 94 81 72 57 38 14 346 307 282 271 266 263 259 255 253 253 256 257 261 266 267 273 272 273 275 275 276 278
135 131 130 123 110 101 75 54 16 357 345 339 320 293 278 275 272 267 264 261 262 265 267 269 271 272 273 274 274 275 275 277
151 154 154 158 159 147 136 99 34 12 344 353 4 5 346 325 296 286 278 274 272 270 271 273 273 273 274 276 278 279 280 281
165 163 160 158 147 140 119 88 56 28 14 352 323 309 309 311 317 310 301 293 290 289 286 280 277 277 278 278 280 281 283 285
167 160 150 142 136 125 115 109 95 77 66 63 49 28 353 322 307 301 297 293 290 289 289 286 281 277 272 270 269 269 271 273
168 158 151 147 137 128 124 114 94 72 58 46 30 16 3 355 345 333 325 321 314 309 303 299 294 291 290 288 287 284 284 286
169 163 157 149 145 142 134 116 95 64 48 31 19 8 1 358 353 346 342 338 333 328 321 316 309 305 301 297 294 291 291 290
172 165 159 155 151 144 129 112 87 32 0 351 347 342 341 338 335 332 330 328 326 325 322 319 318 313 309 305 302 298 295 293
174 167 163 159 155 152 149 148 335 321 327 325 324 323 321 321 319 320 319 319 319 319 318 317 317 314 312 310 306 303 301 297
175 171 164 162 161 161 238 310 317 321 323 323 321 319 318 316 315 315 313 312 312 311 311 310 309 308 308 308 308 307 305 305
172 171 170 173 184 262 297 307 312 315 316 315 314 313 312 312 313 312 311 309 310 309 309 307 305 303 302 303 304 304 304 306
173 175 182 201 262 292 298 302 305 307 308 309 310 310 311 312 312 312 312 311 310 307 305 304 302 299 298 298 299 301 303 306
176 185 209 255 276 285 292 296 300 304 305 306 308 309 310 310 309 308 308 308 309 309 307 305 302 298 296 297 299 301 302 302
183 205 237 262 276 287 293 300 305 307 307 308 309 310 311 312 314 313 313 311 310 308 305 303 301 299 301 300 301 302 301 299
199 224 251 269 280 289 296 300 304 307 310 311 312 313 313 313 314 313 313 312 310 308 304 300 298 302 305 306 309 310 305 304
213 240 258 269 281 290 298 304 308 310 312 313 315 316 316 315 313 312 310 308 307 307 302 296 291 295 296 298 296 296 294 296
231 244 259 277 290 300 305 309 312 314 317 320 320 320 318 317 316 314 310 308 305 305 304 291 291 293 294 293 292 289 281 278
232 242 254 268 281 294 306 314 318 320 319 320 319 318 318 317 316 315 315 314 313 311 310 305 301 299 296 295 298 297 285 276
225 232 241 255 274 290 298 304 309 312 314 315 316 316 316 315 313 313 312 311 312 314 310 308 305 303 299 299 298 296 286 272
Wind_Speed_850mb
28 27 25 24 22 20 18 15 11 7 1 6 12 19 27 33 39 43 44 45 46 45 50 53 48 40 50 54 61 65 65 69
27 24 20 18 15 14 13 12 9 8 7 7 10 13 17 20 25 32 37 43 45 47 50 46 47 48 53 55 57 60 62 66
25 22 17 12 9 5 4 3 5 6 6 6 5 6 9 13 17 19 22 26 31 34 37 42 48 54 58 60 62 64 65 64
22 19 16 12 10 7 4 3 3 5 5 6 7 7 8 8 9 11 14 19 23 26 28 30 35 39 41 44 46 50 53 56
26 23 20 18 15 11 9 8 6 6 6 6 6 7 9 9 11 13 14 16 20 22 24 27 30 32 34 37 41 43 46 49
31 30 28 26 24 21 17 13 11 9 8 6 7 7 7 8 11 14 17 21 24 26 29 33 34 35 39 43 45 48 50 55
38 35 32 28 23 19 16 13 11 10 9 10 9 10 10 11 12 16 19 23 27 31 34 37 41 47 52 56 60 61 64 67
41 35 30 26 23 19 15 12 8 6 6 6 8 10 12 15 17 19 23 25 28 30 33 35 39 43 47 51 57 62 66 70
44 35 29 25 21 16 13 9 5 4 6 9 12 15 19 22 25 28 32 35 39 41 44 44 45 47 48 51 54 59 61 64
41 33 29 26 21 16 10 4 3 9 14 19 23 26 30 33 36 38 41 43 45 47 48 49 46 49 48 49 51 52 54 56
42 35 29 22 15 8 3 9 17 24 28 31 34 37 39 42 43 45 47 47 49 48 50 52 51 52 53 53 56 58 57 56
41 33 25 17 8 6 14 22 27 31 34 37 41 44 48 50 52 55 56 56 55 57 55 55 56 52 52 52 53 54 57 58
38 29 19 10 9 16 24 28 31 34 36 37 39 42 46 50 52 54 58 62 62 62 62 58 56 56 55 52 52 52 56 60
31 21 12 12 17 23 26 27 29 32 35 39 42 47 51 55 56 57 57 61 64 65 66 64 58 56 58 56 52 53 53 57
25 17 15 18 22 24 26 27 30 33 37 40 42 43 45 49 54 57 56 57 60 63 64 64 62 59 56 58 58 50 49 50
21 17 18 21 22 24 26 28 30 32 35 38 41 46 48 48 50 51 52 56 59 60 62 63 63 58 53 55 58 56 51 49
19 18 20 22 23 24 26 28 30 32 37 41 44 46 50 53 53 48 54 55 57 58 55 57 55 54 56 58 60 59 42 42
21 19 19 21 22 23 25 27 30 33 37 41 46 50 53 55 58 64 54 53 55 54 47 47 54 56 60 59 55 49 38 41
21 18 17 18 19 20 22 26 31 37 43 47 50 52 55 57 58 59 61 64 61 51 46 46 45 45 48 49 49 47 38 39
21 19 18 16 17 19 24 28 33 39 45 50 53 55 56 57 57 55 55 55 57 55 50 40 42 40 41 42 43 42 39 39
Wind_Direction_850mb
113 102 93 86 76 71 65 58 50 42 347 238 247 250 248 245 243 245 249 253 256 257 262 266 265 271 273 272 280 278 281 283
120 114 104 98 94 81 72 57 38 14 346 307 282 271 266 263 259 255 253 253 256 257 261 266 267 273 272 273 275 275 276 278
135 131 130 123 110 101 75 54 16 357 345 339 320 293 278 275 272 267 264 261 262 265 267 269 271 272 273 274 274 275 275 277
151 154 154 158 159 147 136 99 34 12 344 353 4 5 346 325 296 286 278 274 272 270 271 273 273 273 274 276 278 279 280 281
165 163 160 158 147 140 119 88 56 28 14 352 323 309 309 311 317 310 301 293 290 289 286 280 277 277 278 278 280 281 283 285
167 160 150 142 136 125 115 109 95 77 66 63 49 28 353 322 307 301 297 293 290 289 289 286 281 277 272 270 269 269 271 273
168 158 151 147 137 128 124 114 94 72 58 46 30 16 3 355 345 333 325 321 314 309 303 299 294 291 290 288 287 284 284 286
169 163 157 149 145 142 134 116 95 64 48 31 19 8 1 358 353 346 342 338 333 328 321 316 309 305 301 297 294 291 291 290
172 165 159 155 151 144 129 112 87 32 0 351 347 342 341 338 335 332 330 328 326 325 322 319 318 313 309 305 302 298 295 293
174 167 163 159 155 152 149 148 335 321 327 325 324 323 321 321 319 320 319 319 319 319 318 317 317 314 312 310 306 303 301 297
175 171 164 162 161 161 238 310 317 321 323 323 321 319 318 316 315 315 313 312 312 311 311 310 309 308 308 308 308 307 305 305
172 171 170 173 184 262 297 307 312 315 316 315 314 313 312 312 313 312 311 309 310 309 309 307 305 303 302 303 304 304 304 306
173 175 182 201 262 292 298 302 305 307 308 309 310 310 311 312 312 312 312 311 310 307 305 304 302 299 298 298 299 301 303 306
176 185 209 255 276 285 292 296 300 304 305 306 308 309 310 310 309 308 308 308 309 309 307 305 302 298 296 297 299 301 302 302
183 205 237 262 276 287 293 300 305 307 307 308 309 310 311 312 314 313 313 311 310 308 305 303 301 299 301 300 301 302 301 299
199 224 251 269 280 289 296 300 304 307 310 311 312 313 313 313 314 313 313 312 310 308 304 300 298 302 305 306 309 310 305 304
213 240 258 269 281 290 298 304 308 310 312 313 315 316 316 315 313 312 310 308 307 307 302 296 291 295 296 298 296 296 294 296
231 244 259 277 290 300 305 309 312 314 317 320 320 320 318 317 316 314 310 308 305 305 304 291 291 293 294 293 292 289 281 278
232 242 254 268 281 294 306 314 318 320 319 320 319 318 318 317 316 315 315 314 313 311 310 305 301 299 296 295 298 297 285 276
225 232 241 255 274 290 298 304 309 312 314 315 316 316 316 315 313 313 312 311 312 314 310 308 305 303 299 299 298 296 286 272